Powrót do katalogu

STARLINK-11193

AktywnyŁącznośćVLEO
NORAD 60195·PAYLOAD·🇺🇸 United States

Wystrzelony Jul 3, 2024 z Cape Canaveral Space Force Station

Loading…

Następne Przeloty (najbliższe 24 godziny)

TLE

ŚwieżeSource: CelesTrak SupGP

Epoka: Sep 14, 2026, 20:46 UTC

1 60195C 24124N   26257.86576389 -.00067847  00000+0 -55887-3 0  2574
2 60195  53.1561 308.6559 0001120  97.4253  12.6240 15.69743508    18

Śledź STARLINK-11193 w czasie rzeczywistym z AllMySat

Download on the App Store